sat.trackr.live / text

‹ back to catalog

KUIPER-00241

NORAD 67149 · 2025-301S

PAYLOAD ACTIVE UNKNOWN

§ Identity

Operator
Country
US
Launch date
2025-12-16
Launch site
AFETR
Launch vehicle
Mass (kg)
RCS (m²)

External: N2YO · Heavens-Above · Gunter

§ Orbital elements

Epoch: 2026-05-25T03:01:06.511584Z

Period
97.30 min
Inclination
51.9026°
Eccentricity
0.0000789
Mean motion
14.79941205 rev/d
Perigee alt
629.0 km
Apogee alt
630.1 km
Semi-major
7,007.6 km
B*
3.8045e-4
RAAN
97.6329°
Arg perigee
85.1566°
Mean anomaly
274.9486°
Rev number
2,524

§ Raw data

KUIPER-002411 67149U 25301S   26145.12576981  .00002681  00000+0  38045-3 0  99942 67149  51.9026  97.6329 0000789  85.1566 274.9486 14.79941205 25248

JSON: /api/v1/satellites/67149 · /tle

For live sub-satellite position, see the globe view (requires WebGL).

§ Visibility from observer

Set your observer location to see the next 7 days of passes ≥ 10°. The values pass through the URL so the page stays shareable.

No JS? Fill the form by hand. The geolocation button needs JavaScript.